Regional Weather Roundup
Issued by NWS

Home | Current Version | Previous Version | Text Only | Print | Product List | Glossary On
Versions: 1 2 3 4 5 6 7 8 9 10 11 12 13 14 15 16 17 18 19 20 21 22 23 24 25 26 27 28 29 30 31 32 33 34 35 36 37 38 39 40 41 42 43 44 45 46 47 48 49 50
000
ASUS43 KMKX 291221
RWRWI

WISCONSIN REGIONAL WEATHER ROUNDUP
NATIONAL WEATHER SERVICE MILWAUKEE/SULLIVAN WI
700 AM CDT SAT JUL 29 2017

NOTE: "FAIR" INDICATES FEW OR NO CLOUDS BELOW 12,000 FEET WITH NO
SIGNIFICANT WEATHER AND/OR OBSTRUCTIONS TO VISIBILITY.

WIZ001-002-006>008-014>016-023>028-291300-
NORTHWEST WISCONSIN

CITY           SKY/WX    TMP DP  RH WIND       PRES   REMARKS
SUPERIOR ARPT  NOT AVBL
ASHLAND        SUNNY     54  54 100 S3        30.15R
6HR MIN TEMP:  50; 6HR MAX TEMP:  54;

HAYWARD        SUNNY     55  53  93 CALM      30.17R
6HR MIN TEMP:  51; 6HR MAX TEMP:  57;

SIREN          SUNNY     58  57  94 CALM      30.16S
6HR MIN TEMP:  55; 6HR MAX TEMP:  61;

CUMBERLAND     PTSUNNY   59  57  94 CALM      30.17S
RICE LAKE      SUNNY     57  57  97 CALM      30.19R
6HR MIN TEMP:  55; 6HR MAX TEMP:  59;

CHETEK         MOSUNNY   58  58  99 CALM      30.18R
6HR MIN TEMP:  55; 6HR MAX TEMP:  60;

LADYSMITH      SUNNY     58  56  93 CALM      30.20R
6HR MIN TEMP:  55; 6HR MAX TEMP:  61;

EAU CLAIRE     MOSUNNY   61  60  97 CALM      30.16R
6HR MIN TEMP:  56; 6HR MAX TEMP:  62;

MENOMONIE      SUNNY     63  61  93 CALM      30.18R
6HR MIN TEMP:  59; 6HR MAX TEMP:  63;

NEW RICHMOND   PTSUNNY   60  59  99 CALM      30.17R
6HR MIN TEMP:  56; 6HR MAX TEMP:  61;

OSCEOLA        MOSUNNY   56  56 100 CALM      30.19S
6HR MIN TEMP:  55; 6HR MAX TEMP:  60;

$$

WIZ003>005-009-010-017-018-291300-
NORTH CENTRAL WISCONSIN

CITY           SKY/WX    TMP DP  RH WIND       PRES   REMARKS
MANITOWISH WTR SUNNY     58  58 100 CALM      30.20S
6HR MIN TEMP:  48; 6HR MAX TEMP:  55;

ARBOR VITAE    SUNNY     59  57  94 CALM      30.20R
6HR MIN TEMP:  52; 6HR MAX TEMP:  59;

WOODRUFF       SUNNY     59  57  94 CALM      30.20R
6HR MIN TEMP:  52; 6HR MAX TEMP:  59;

RHINELANDER    SUNNY     57  55  93 CALM      30.21R
6HR MIN TEMP:  49; 6HR MAX TEMP:  57;

EAGLE RIVER    SUNNY     52  52 100 CALM      30.20S
6HR MIN TEMP:  47; 6HR MAX TEMP:  54;

LAND O LAKES   SUNNY     55  55 100 CALM      30.22S
6HR MIN TEMP:  46; 6HR MAX TEMP:  51;

PHILLIPS       SUNNY     59  57  96 CALM      30.19R
6HR MIN TEMP:  52; 6HR MAX TEMP:  56;

TOMAHAWK         N/A     50  49  97 CALM      30.21R
6HR MIN TEMP:  46; 6HR MAX TEMP:  51;

MEDFORD        SUNNY     57  55  91 SE3       30.19R
6HR MIN TEMP:  51; 6HR MAX TEMP:  60;

MERRILL        NOT AVBL
$$

WIZ029-030-035-036-043>047-291300-
CENTRAL WISCONSIN

CITY           SKY/WX    TMP DP  RH WIND       PRES   REMARKS
WAUSAU         SUNNY     57  56  96 CALM      30.18R
6HR MIN TEMP:  54; 6HR MAX TEMP:  61;

MOSINEE        MOSUNNY   57  55  94 E5        30.19S
MARSHFIELD       N/A     59  55  87 CALM      30.18R
6HR MIN TEMP:  56; 6HR MAX TEMP:  61;

STEVENS POINT  SUNNY     52  52 100 CALM      30.20R
6HR MIN TEMP:  50; 6HR MAX TEMP:  57;

WAUPACA        SUNNY     58  57  97 CALM      30.18S
6HR MIN TEMP:  55; 6HR MAX TEMP:  59;

WAUTOMA        MOSUNNY   58  55  90 CALM      30.19R
6HR MIN TEMP:  52; 6HR MAX TEMP:  58;

WISC RAPIDS    SUNNY     59  56  89 CALM      30.20R
6HR MIN TEMP:  52; 6HR MAX TEMP:  62;

CAMP DOUGLAS   SUNNY     54  54 100 W3        30.18R
$$

WIZ011>013-019>022-031-037>040-048>050-291300-
NORTHEAST WISCONSIN

CITY           SKY/WX    TMP DP  RH WIND       PRES   REMARKS
ANTIGO         SUNNY     56  55  97 CALM      30.21R
6HR MIN TEMP:  50; 6HR MAX TEMP:  56;

SHAWANO        SUNNY     60  59  96 CALM      30.18S
6HR MIN TEMP:  54; 6HR MAX TEMP:  62;

OCONTO         MOSUNNY   56  56  97 CALM      30.18R
6HR MIN TEMP:  50; 6HR MAX TEMP:  56;

STURGEON BAY     N/A     60  57  89 CALM      30.19R
6HR MIN TEMP:  55; 6HR MAX TEMP:  64;

GREEN BAY      SUNNY     59  59 100 CALM      30.18R
6HR MIN TEMP:  53; 6HR MAX TEMP:  59;

MANITOWOC      SUNNY     60  59  96 NW3       30.18R
6HR MIN TEMP:  55; 6HR MAX TEMP:  60;

APPLETON       MOSUNNY   57  52  82 VRB3      30.17R
CLINTONVILLE   SUNNY    N/A N/A N/A CALM      30.19R
OSHKOSH        SUNNY     61  58  90 CALM      30.17R
6HR MIN TEMP:  56; 6HR MAX TEMP:  67;

$$

WIZ032>034-041-042-053>061-291300-
SOUTHWEST WISCONSIN

CITY           SKY/WX    TMP DP  RH WIND       PRES   REMARKS
LA CROSSE      PTSUNNY   65  60  84 E6        30.16R
6HR MIN TEMP:  63; 6HR MAX TEMP:  66;

SPARTA         MOSUNNY   56  54  95 CALM      30.19R
6HR MIN TEMP:  51; 6HR MAX TEMP:  55;

VIROQUA        MOSUNNY   62  59  91 E6        30.18S
6HR MIN TEMP:  57; 6HR MAX TEMP:  64;

BOSCOBEL       FOG       59  58  96 CALM      30.17R VSB 1/4
6HR MIN TEMP:  56; 6HR MAX TEMP:  60;

PRAIRIE DU CHI FOG       58  57  96 CALM      30.16R VSB<1/4
6HR MIN TEMP:  57; 6HR MAX TEMP:  60;

PLATTEVILLE    SUNNY     61  60  97 N5        30.16R
6HR MIN TEMP:  57; 6HR MAX TEMP:  64;

$$

WIZ056-057-062-063-064-067-068-291300-
SOUTH CENTRAL WISCONSIN

CITY           SKY/WX    TMP DP  RH WIND       PRES   REMARKS
REEDSBURG      PTSUNNY   57  57 100 CALM      30.18R
6HR MIN TEMP:  55; 6HR MAX TEMP:  60;

BARABOO/DELLS  PTSUNNY   59  57  96 CALM      30.17S
6HR MIN TEMP:  54; 6HR MAX TEMP:  59;

LONE ROCK      PTSUNNY   58  57  97 CALM      30.17R
6HR MIN TEMP:  55; 6HR MAX TEMP:  60;

MINERAL POINT  SUNNY     61  59  94 NE6       30.16R
MADISON        MOSUNNY   59  56  89 N5        30.16R
6HR MIN TEMP:  55; 6HR MAX TEMP:  62;

MIDDLETON      MOSUNNY   61  61 100 CALM      30.18R
6HR MIN TEMP:  54; 6HR MAX TEMP:  58;

WATERTOWN      MOSUNNY   59  59  99 CALM      30.16R
6HR MIN TEMP:  55; 6HR MAX TEMP:  60;

MONROE         SUNNY     61  57  88 N5        30.15S
JANESVILLE     MOSUNNY   63  63 100 NE5       30.13R
$$

WIZ051-052-058>065-066-070>072-291300-
SOUTHEAST WISCONSIN

CITY           SKY/WX    TMP DP  RH WIND       PRES   REMARKS
MILWAUKEE      MOSUNNY   67  54  63 NE8       30.15R
6HR MIN TEMP:  62; 6HR MAX TEMP:  68;

WAUKESHA       SUNNY     57  55  94 CALM      30.17R
MILWAUKEE/TIMM SUNNY     61  54  77 CALM      30.17R
RACINE         SUNNY     67  55  65 NE7       30.16R
6HR MIN TEMP:  64; 6HR MAX TEMP:  69;

KENOSHA        SUNNY     65  55  70 NE3       30.14R
6HR MIN TEMP:  58; 6HR MAX TEMP:  67;

FOND DU LAC    SUNNY     60  56  86 CALM      30.18R
6HR MIN TEMP:  53; 6HR MAX TEMP:  63;

SHEBOYGAN      SUNNY     60  59  96 NW3       30.17R
6HR MIN TEMP:  50; 6HR MAX TEMP:  60;

WEST BEND      SUNNY     55  55 100 CALM      30.18R
JUNEAU         MOSUNNY   59  56  88 N3        30.18S
6HR MIN TEMP:  56; 6HR MAX TEMP:  61;

$$

LSZ147-162-291300-
LAKE SUPERIOR

STATION/POSITION TIME  TEMP    WIND        PRES    WAVE
                       AIR SEA DIR/SP/G            HT/PER
                 (UTC) (F)     (DEG/KT/KT) (MB)    (FT/S)
W MID LAKE BUOY  1150   60 56  210/  2/  2 1020.2R   0
DEVILS ISLAND    1200   65        CALM     1020.7R
SAXON HARBOR     1130   57     190/  2/  3 1020.3R
$$

LMZ867-665-643>646-291300-
LAKE MICHIGAN

STATION/POSITION TIME  TEMP    WIND        PRES    WAVE
                       AIR SEA DIR/SP/G            HT/PER
                 (UTC) (F)     (DEG/KT/KT) (MB)    (FT/S)
CHAMBERS ISLAND  1140   68     340/  6/  6 1021.0S
S GREEN BAY BUOY 1200   68 72  330/  6/  8 1021.6
N MID LAKE BUOY  1150   67 67   60/  4/  4 1022.1R   0
NORTHPORT PIER   1140   63     320/  3/  3 1021.7R
KEWAUNEE LAKESHO 1154   59     300/  3/  5 1



USA.gov is the U.S. government's official web portal to all federal, state and local government web resources and services.